Indian Mountain, AK

3:04 AM AKDT on September 21, 2017 (GMT -0800)
Indian Mountain

Weather History for PAIM - September, 2013

Change the Weather History Date:

Tuesday, September 3, 2013

  Actual Average Record
Temperature  
Mean Temperature 46 °F -  
Max Temperature 50 °F 51 °F 64 °F (2008)
Min Temperature 41 °F 36 °F 10 °F (2003)
Degree Days  
Heating Degree Days 20    
Moisture  
Dew Point 43 °F    
Average Humidity 92    
Maximum Humidity 100    
Minimum Humidity 82    
Precipitation  
Precipitation 0.49 in - - ()
Sea Level Pressure  
Sea Level Pressure 29.36 in    
Wind  
Wind Speed 3 mph (SE)    
Max Wind Speed 15 mph    
Max Gust Speed 23 mph    
Visibility 7 miles    
Events Fog , Rain    
Averages and records for this station are not official NWS values.
T = Trace of Precipitation, MM = Missing Value Source: NWS Daily Summary

Daily Weather History Graph

Daily Weather History Graph

Search for Another Location

Airport or City:

Trip Planner

Search our weather history database for the weather conditions in past years. The results will help you decide how hot, cold, wet, or windy it might be!

Date:

Astronomy

Sep. 03, 2013 Rise Set
Actual Time 6:58 AM AKDT 9:27 PM AKDT
Civil Twilight 6:00 AM AKDT 10:24 PM AKDT
Nautical Twilight 4:39 AM AKDT 11:44 PM AKDT
Astronomical Twilight 2:46 AM AKDT 1:41 AM AKDT
Moon 5:04 AM AKDT (9/3) 8:23 PM AKDT (9/3)
Length of Visible Light 16h 23m
Length of Day
14h 29m
Waning Crescent, 3% of the Moon is Illuminated
Sep 3
Waning Crescent
Sep 5
New
Sep 12
First Quarter
Sep 19
Full
Sep 26
Last Quarter

Hourly Weather History & Observations

Time (AKDT) Temp. Windchill Dew Point Humidity Pressure Visibility Wind Dir Wind Speed Gust Speed Precip Events Conditions
12:36 AM 42.8 °F - 41.0 °F 93% 29.43 in 2.0 mi Variable 1.2 mph - N/A Rain Light Rain
12:55 AM 41.9 °F - 40.3 °F 94% 29.42 in 2.0 mi South 2.3 mph - 0.29 in Rain Light Rain
1:16 AM 42.8 °F 41.1 °F 41.0 °F 93% 29.42 in 4.0 mi WSW 3.5 mph - N/A Rain Light Rain
1:55 AM 42.3 °F - 40.5 °F 93% 29.43 in 10.0 mi SE 2.3 mph - 0.09 in Rain Light Rain
1:56 AM 42.8 °F - 41.0 °F 93% 29.43 in 10.0 mi SSE 2.3 mph - N/A   Overcast
2:16 AM 42.8 °F - 41.0 °F 93% 29.43 in 10.0 mi South 2.3 mph - N/A   Overcast
2:36 AM 42.8 °F - 41.0 °F 93% 29.43 in 10.0 mi SW 1.2 mph - N/A Rain Light Rain Showers
2:55 AM 43.0 °F - 40.6 °F 91% 29.43 in 10.0 mi Variable 2.3 mph - N/A Rain Light Rain Showers
3:36 AM 42.8 °F - 41.0 °F 93% 29.42 in 6.0 mi ESE 2.3 mph - N/A Rain Rain
3:55 AM 42.6 °F - 41.7 °F 97% 29.42 in 10.0 mi Variable 1.2 mph - 0.09 in Rain Rain
4:16 AM 42.8 °F - 41.0 °F 93% 29.42 in 1.5 mi North 1.2 mph - N/A Rain Light Rain
4:37 AM 42.8 °F - 41.0 °F 93% 29.41 in 1.8 mi East 1.2 mph - N/A   Overcast
4:55 AM 41.9 °F 40.0 °F 40.8 °F 96% 29.41 in 1.5 mi SSE 3.5 mph - 0.00 in   Overcast
5:17 AM 42.8 °F - 41.0 °F 93% 29.41 in 0.8 mi SSW 2.3 mph - N/A Fog Fog
5:37 AM 42.8 °F - 41.0 °F 93% 29.42 in 6.0 mi Variable 2.3 mph - N/A   Overcast
5:55 AM 42.3 °F - 41.4 °F 97% 29.42 in 10.0 mi North 1.2 mph - N/A   Overcast
5:57 AM 42.8 °F - 41.0 °F 93% 29.42 in 10.0 mi North 1.2 mph - N/A   Overcast
6:17 AM 42.8 °F - 41.0 °F 93% 29.41 in 2.0 mi North 2.3 mph - N/A   Overcast
6:37 AM 42.8 °F - 41.0 °F 93% 29.41 in 10.0 mi SE 1.2 mph - N/A   Overcast
6:55 AM 42.3 °F - 41.2 °F 96% 29.41 in 1.0 mi Variable 1.2 mph - N/A   Overcast
6:57 AM 42.8 °F - 41.0 °F 93% 29.41 in 1.2 mi SSW 2.3 mph - N/A   Overcast
7:17 AM 42.8 °F - 41.0 °F 93% 29.40 in 3.0 mi ESE 2.3 mph - N/A Rain Light Rain
7:37 AM 42.8 °F - 41.0 °F 93% 29.40 in 0.2 mi SE 2.3 mph - N/A Fog , Rain Light Rain Showers
7:55 AM 41.9 °F - 41.0 °F 97% 29.38 in 0.2 mi South 2.3 mph - 0.00 in Fog Fog
8:17 AM 42.8 °F - 41.0 °F 93% 29.40 in 0.2 mi Variable 2.3 mph - N/A Fog Fog
8:55 AM 43.0 °F - 42.1 °F 97% 29.39 in 0.2 mi West 2.3 mph - N/A Fog Fog
9:17 AM 42.8 °F - 42.8 °F 100% 29.39 in 0.2 mi Variable 1.2 mph - N/A Fog Fog
9:37 AM 44.6 °F 42.2 °F 42.8 °F 93% 29.39 in 0.2 mi South 4.6 mph - N/A Fog , Rain Light Rain
9:55 AM 44.4 °F - 43.7 °F 97% 29.39 in 10.0 mi SE 2.3 mph - N/A   Overcast
10:17 AM 46.4 °F 45.2 °F 46.4 °F 100% 29.37 in 10.0 mi SW 3.5 mph - N/A   Mostly Cloudy
10:37 AM 48.2 °F - 46.4 °F 93% 29.36 in 10.0 mi South 4.6 mph - N/A   Mostly Cloudy
10:55 AM 48.2 °F - 46.9 °F 95% 29.37 in 10.0 mi South 6.9 mph - N/A   Mostly Cloudy
11:55 AM 45.5 °F 42.5 °F 44.2 °F 95% 29.36 in 10.0 mi SSE 5.8 mph - N/A   Mostly Cloudy
12:37 PM 46.4 °F 45.2 °F 44.6 °F 93% 29.36 in 10.0 mi SE 3.5 mph - N/A Rain Light Rain
12:55 PM 46.2 °F 45.0 °F 45.0 °F 95% 29.36 in 10.0 mi South 3.5 mph - 0.00 in Rain Light Rain
1:37 PM 48.2 °F - 46.4 °F 93% 29.34 in 10.0 mi SE 10.4 mph - N/A   Mostly Cloudy
1:55 PM 48.9 °F - 46.0 °F 90% 29.33 in 10.0 mi SE 9.2 mph - 0.00 in   Mostly Cloudy
2:55 PM 50.0 °F - 45.9 °F 86% 29.31 in 10.0 mi ESE 8.1 mph 17.3 mph N/A   Mostly Cloudy
3:55 PM 49.6 °F - 45.3 °F 85% 29.29 in 10.0 mi SE 15.0 mph 18.4 mph N/A   Mostly Cloudy
4:17 PM 50.0 °F - 46.4 °F 87% 29.29 in 10.0 mi ESE 12.7 mph 20.7 mph N/A   Mostly Cloudy
4:37 PM 48.2 °F - 46.4 °F 93% 29.29 in 10.0 mi Variable 6.9 mph - N/A Rain Light Rain
4:55 PM 49.8 °F - 45.7 °F 86% 29.28 in 10.0 mi East 9.2 mph 23.0 mph N/A Rain Light Rain Showers
4:57 PM 50.0 °F - 46.4 °F 87% 29.27 in 10.0 mi ENE 11.5 mph 18.4 mph N/A   Mostly Cloudy
5:55 PM 50.4 °F - 45.1 °F 82% 29.27 in 10.0 mi ESE 8.1 mph 18.4 mph N/A Rain Light Rain
6:27 PM 50.0 °F - 46.4 °F 87% 29.27 in 10.0 mi East 10.4 mph 15.0 mph N/A Rain Light Rain
6:40 PM 50.0 °F - 46.4 °F 87% 29.26 in 10.0 mi ESE 9.2 mph 16.1 mph N/A Rain Light Rain Showers
6:55 PM 49.8 °F - 45.3 °F 84% 29.27 in 10.0 mi East 5.8 mph 15.0 mph 0.00 in Rain Light Rain Showers
7:37 PM 50.0 °F - 44.6 °F 82% 29.25 in 10.0 mi ESE 10.4 mph 16.1 mph N/A   Mostly Cloudy
7:55 PM 49.3 °F - 46.0 °F 89% 29.26 in 10.0 mi SSE 6.9 mph - 0.00 in   Mostly Cloudy
8:55 PM 49.8 °F - 45.1 °F 84% 29.27 in 10.0 mi SSW 4.6 mph - N/A   Mostly Cloudy
9:37 PM 48.2 °F - 46.4 °F 93% 29.28 in 7.0 mi South 3.5 mph - N/A Rain Light Rain
9:55 PM 48.2 °F - 45.7 °F 91% 29.28 in 10.0 mi Variable 3.5 mph - 0.02 in Rain Light Rain
10:37 PM 48.2 °F - 46.4 °F 93% 29.28 in 10.0 mi South 3.5 mph - N/A   Mostly Cloudy
10:55 PM 48.0 °F - 45.5 °F 91% 29.28 in 10.0 mi SE 5.8 mph - N/A   Mostly Cloudy
11:17 PM 48.2 °F - 44.6 °F 87% 29.29 in 10.0 mi SE 9.2 mph - N/A   Mostly Cloudy
11:55 PM 47.3 °F - 45.0 °F 92% 29.31 in 10.0 mi Variable 3.5 mph - N/A   Mostly Cloudy